Temp
14 13 13 13 13 12 12 11 11 10 9 10 10 10 10 10 10 10 9 9 8 8 9 9 8 9 9 10 10 9 9 9 9 9 8 8 8 8 8 8 8 8 8
13 13 13 13 13 12 12 12 11 11 11 11 11 11 11 11 11 10 10 10 10 10 10 9 9 9 9 9 9 9 9 9 9 9 8 7 7 7 7 7 7 8 8
15 14 13 13 13 13 13 13 12 12 11 10 10 11 11 11 11 11 11 11 11 10 10 10 10 9 9 9 9 8 8 8 8 8 8 8 7 6 6 6 7 7 7
15 14 14 14 14 13 13 13 13 12 12 11 10 10 10 10 10 10 10 11 11 11 10 10 10 10 10 10 9 8 8 8 8 8 8 8 7 7 7 6 6 6 6
15 15 14 14 14 14 14 13 12 12 12 11 11 11 11 10 10 10 10 10 10 10 11 10 10 10 10 9 9 9 8 8 8 7 8 7 7 7 7 7 6 6 6
15 15 14 13 13 14 14 13 13 12 12 11 11 11 11 11 11 11 11 11 11 10 10 11 10 10 10 9 9 8 7 7 7 7 7 6 7 7 6 6 7 6 6
16 15 15 14 14 14 14 13 13 13 12 12 12 11 11 11 11 11 10 10 10 10 11 10 11 10 10 9 8 7 7 7 7 6 6 6 6 6 6 6 6 6 6
16 16 15 14 14 14 13 13 13 13 13 12 12 11 11 11 10 10 10 10 10 10 10 10 10 10 9 9 8 7 7 7 7 6 6 6 6 5 5 5 6 6 6
17 16 15 14 14 13 13 13 13 13 13 13 12 11 11 11 10 10 10 10 9 9 9 9 10 10 9 9 8 7 7 6 6 6 6 5 4 4 4 5 5 5 5
18 17 16 15 15 14 13 13 13 13 12 13 12 12 11 11 10 10 10 9 9 9 9 9 9 10 9 9 8 7 6 6 6 5 5 5 4 4 4 4 4 4 4
18 18 17 16 15 15 14 14 13 13 12 12 12 12 11 11 10 10 10 9 9 9 9 9 9 9 9 8 8 7 6 5 5 4 4 4 4 4 4 3 3 3 3
18 17 17 16 15 15 15 14 14 13 13 12 12 12 11 10 10 10 10 9 8 8 8 8 9 9 9 8 7 6 5 5 5 4 4 3 3 3 3 3 3 3 3
18 17 17 16 16 15 15 15 14 14 14 13 12 11 11 11 11 10 9 9 7 8 8 8 9 9 8 7 6 6 5 5 4 4 3 3 3 3 3 3 3 2 2
18 17 17 17 16 16 16 15 15 14 14 13 12 11 11 11 9 9 8 8 7 8 8 8 8 8 7 6 6 5 5 5 4 3 3 3 2 3 3 3 3 2 1
18 17 17 17 16 16 16 15 15 14 14 13 13 12 12 10 9 8 6 8 7 7 7 8 7 7 6 5 5 5 4 4 3 3 2 2 2 2 2 2 2 2 1
18 17 17 17 16 16 15 15 14 14 13 13 13 13 11 10 8 6 4 6 6 6 7 7 6 5 5 5 4 4 3 3 3 3 2 2 2 1 1 1 1 1 1
18 17 16 16 15 15 15 14 14 13 13 13 13 12 12 10 8 7 7 6 6 6 7 6 5 5 5 5 3 3 3 3 2 2 3 2 2 1 1 1 0 0 0
17 17 16 15 14 14 14 14 14 14 14 13 13 12 12 10 8 9 8 7 5 6 6 5 4 4 5 4 3 3 3 3 2 2 3 2 1 1 1 2 1 0 0
16 16 15 14 14 14 14 14 14 14 14 13 12 12 11 10 9 7 8 8 5 6 5 5 4 4 4 3 3 3 3 3 2 2 2 2 1 1 1 2 1 0 0
15 15 14 14 13 13 13 12 12 12 13 13 12 11 10 9 8 7 7 6 6 5 5 4 4 4 2 3 3 3 3 3 3 3 2 2 1 1 1 1 1 0 1
14 13 13 13 12 12 12 12 11 11 11 12 12 12 10 9 7 7 6 7 6 5 4 4 4 3 2 3 2 3 2 2 3 2 2 2 1 1 1 0 -1 -0 0
12 12 12 11 11 11 11 11 12 12 11 11 10 10 9 8 8 7 6 6 5 4 4 3 3 4 3 3 2 2 2 2 2 2 2 1 1 1 0 -1 -1 -0 1
12 12 11 11 11 11 10 11 11 11 10 9 9 9 8 8 7 7 6 6 5 4 4 3 4 3 3 2 2 2 2 2 1 1 2 1 1 0 -1 -1 -0 1 1
12 12 12 11 11 11 10 10 10 11 10 9 8 8 7 8 7 6 5 5 4 4 3 4 3 3 2 1 1 1 1 1 2 1 2 2 1 0 -1 -0 1 1 1
12 12 11 11 11 10 10 10 10 9 8 7 7 7 6 7 6 6 6 4 4 4 3 2 3 3 2 1 1 1 1 1 1 2 2 2 1 -1 -0 0 1 1 1
10 10 10 9 9 10 10 9 8 8 7 6 7 7 6 6 6 6 6 4 4 3 3 2 2 2 1 1 1 1 1 1 1 1 1 1 -2 -0 1 1 1 1 0
Height
3184 3184 3185 3187 3189 3191 3192 3194 3196 3198 3200 3201 3202 3202 3203 3203 3203 3203 3203 3203 3203 3202 3202 3202 3201 3200 3198 3197 3195 3193 3191 3189 3188 3188 3186 3185 3184 3184 3183 3183 3183 3183 3183
3178 3180 3182 3183 3186 3189 3191 3192 3194 3196 3198 3200 3200 3200 3199 3199 3199 3200 3200 3200 3199 3198 3197 3197 3196 3196 3195 3193 3191 3190 3188 3186 3186 3185 3185 3183 3183 3181 3181 3180 3180 3180 3181
3176 3178 3180 3182 3183 3186 3189 3191 3193 3195 3197 3198 3199 3199 3200 3200 3200 3199 3199 3198 3197 3196 3195 3194 3193 3191 3190 3188 3186 3186 3184 3183 3182 3181 3182 3181 3181 3179 3178 3177 3178 3177 3177
3174 3176 3178 3180 3181 3184 3186 3189 3192 3194 3195 3196 3197 3199 3200 3199 3200 3199 3199 3198 3196 3196 3194 3193 3191 3189 3187 3184 3183 3181 3180 3179 3178 3178 3177 3178 3178 3177 3177 3175 3174 3174 3174
3171 3174 3176 3178 3180 3182 3184 3187 3190 3192 3193 3194 3195 3197 3198 3198 3198 3199 3198 3197 3197 3195 3194 3192 3190 3188 3185 3182 3180 3178 3177 3175 3175 3174 3174 3173 3172 3172 3173 3173 3172 3170 3169
3167 3170 3174 3176 3177 3180 3182 3185 3187 3189 3191 3192 3194 3195 3195 3196 3197 3197 3197 3197 3195 3194 3191 3189 3188 3186 3183 3180 3178 3176 3174 3173 3172 3171 3170 3169 3169 3168 3167 3167 3168 3167 3167
3163 3166 3168 3171 3174 3176 3180 3183 3185 3186 3189 3190 3191 3193 3193 3193 3195 3195 3196 3196 3193 3191 3189 3188 3187 3184 3182 3179 3176 3173 3171 3170 3169 3168 3167 3166 3165 3164 3162 3161 3160 3162 3162
3158 3161 3164 3168 3170 3174 3177 3179 3181 3184 3185 3187 3188 3190 3190 3191 3192 3192 3192 3192 3190 3189 3188 3187 3186 3183 3180 3176 3173 3170 3168 3167 3166 3165 3164 3163 3162 3160 3159 3157 3155 3153 3153
3153 3155 3159 3162 3166 3170 3172 3175 3177 3180 3182 3183 3184 3186 3187 3187 3189 3189 3188 3188 3187 3186 3186 3185 3183 3179 3176 3173 3171 3168 3166 3165 3164 3162 3161 3159 3158 3157 3155 3152 3150 3147 3145
3148 3151 3154 3158 3162 3165 3168 3171 3173 3176 3178 3179 3180 3181 3182 3183 3184 3184 3184 3183 3183 3182 3182 3181 3179 3176 3172 3170 3168 3166 3164 3162 3160 3159 3157 3155 3153 3151 3149 3148 3146 3142 3139
3143 3146 3150 3153 3156 3160 3162 3165 3168 3170 3172 3173 3174 3175 3176 3175 3176 3178 3178 3178 3177 3177 3176 3175 3173 3171 3169 3167 3165 3163 3162 3160 3157 3154 3153 3151 3149 3146 3144 3142 3139 3136 3132
3140 3143 3146 3149 3151 3154 3157 3159 3162 3164 3167 3168 3169 3169 3168 3169 3171 3172 3173 3173 3174 3173 3171 3170 3168 3166 3164 3163 3161 3159 3158 3156 3153 3150 3148 3146 3144 3142 3139 3136 3134 3130 3126
3135 3138 3142 3144 3147 3149 3151 3154 3157 3159 3161 3161 3162 3163 3164 3163 3164 3166 3166 3167 3167 3167 3166 3166 3163 3161 3160 3158 3157 3156 3153 3151 3149 3146 3143 3141 3138 3137 3134 3132 3129 3125 3120
3131 3135 3138 3140 3143 3145 3147 3148 3150 3152 3153 3154 3155 3157 3157 3157 3151 3156 3161 3158 3162 3163 3161 3159 3158 3156 3155 3153 3152 3151 3148 3145 3143 3141 3138 3136 3133 3130 3128 3125 3122 3118 3114
3126 3131 3132 3135 3137 3140 3142 3143 3143 3145 3147 3147 3148 3148 3149 3147 3143 3148 3148 3150 3155 3158 3156 3153 3152 3150 3150 3148 3146 3145 3143 3140 3137 3134 3132 3130 3126 3124 3121 3117 3115 3111 3108
3121 3124 3127 3131 3134 3136 3137 3138 3139 3139 3139 3140 3141 3142 3141 3140 3135 3133 3127 3138 3148 3150 3148 3148 3147 3146 3145 3143 3141 3140 3137 3134 3132 3130 3126 3123 3121 3116 3112 3109 3107 3104 3100
3114 3118 3122 3127 3129 3132 3133 3133 3133 3132 3132 3133 3134 3134 3132 3131 3129 3129 3129 3132 3140 3142 3141 3142 3141 3141 3140 3138 3136 3134 3132 3129 3126 3122 3118 3116 3113 3108 3104 3102 3099 3097 3093
3110 3115 3119 3122 3125 3125 3125 3125 3125 3124 3124 3124 3124 3124 3124 3124 3114 3123 3122 3124 3130 3134 3136 3136 3136 3135 3134 3132 3130 3128 3125 3122 3119 3115 3111 3107 3105 3102 3097 3093 3090 3088 3086
3108 3113 3115 3117 3119 3119 3119 3120 3120 3119 3118 3118 3117 3117 3117 3119 3117 3116 3119 3118 3121 3128 3130 3130 3130 3128 3128 3126 3123 3120 3119 3116 3112 3109 3104 3098 3096 3093 3091 3086 3082 3080 3078
3101 3105 3108 3108 3117 3115 3114 3114 3114 3113 3111 3110 3110 3110 3107 3110 3111 3113 3111 3111 3114 3118 3118 3118 3118 3115 3112 3116 3114 3112 3111 3108 3104 3100 3097 3092 3088 3085 3081 3077 3074 3072 3069
3093 3097 3103 3106 3108 3109 3108 3106 3106 3104 3103 3104 3104 3103 3101 3100 3100 3101 3102 3103 3106 3110 3112 3112 3113 3110 3100 3102 3104 3105 3102 3099 3096 3093 3089 3085 3081 3076 3072 3068 3067 3064 3061
3088 3092 3097 3100 3102 3102 3103 3101 3101 3099 3094 3098 3098 3095 3095 3096 3096 3096 3097 3097 3101 3103 3102 3104 3104 3103 3098 3096 3096 3096 3094 3092 3088 3085 3080 3076 3072 3069 3065 3062 3060 3057 3053
3085 3087 3088 3092 3092 3094 3098 3096 3094 3093 3090 3090 3090 3089 3088 3089 3090 3089 3088 3090 3092 3095 3097 3098 3096 3093 3091 3089 3091 3089 3087 3083 3081 3075 3071 3068 3065 3061 3057 3056 3053 3050 3046
3085 3086 3086 3084 3087 3085 3086 3086 3087 3084 3082 3081 3083 3082 3082 3081 3081 3083 3084 3084 3085 3086 3087 3084 3085 3086 3084 3084 3082 3080 3077 3075 3070 3067 3063 3061 3057 3055 3053 3051 3047 3043 3040
3078 3080 3079 3078 3075 3075 3074 3078 3077 3075 3075 3076 3077 3075 3076 3077 3077 3079 3079 3078 3078 3079 3078 3077 3077 3077 3076 3075 3073 3071 3068 3066 3063 3059 3057 3053 3049 3048 3047 3045 3041 3038 3034
3069 3069 3070 3070 3069 3069 3069 3068 3068 3067 3069 3072 3072 3072 3070 3072 3073 3072 3072 3070 3073 3071 3071 3071 3071 3069 3068 3068 3065 3063 3061 3058 3055 3052 3050 3046 3043 3043 3042 3040 3036 3032 3028
Wind_Speed
16 16 15 15 12 12 12 10 9 9 11 6 5 5 6 7 7 9 11 12 14 15 15 16 18 20 17 16 15 16 16 17 12 10 10 10 12 13 12 12 13 13 12
24 22 21 19 15 13 11 10 8 5 4 8 8 6 4 2 3 4 4 6 9 9 9 9 11 12 13 13 14 14 14 13 12 10 8 11 12 13 12 12 12 13 13
16 19 19 15 14 12 10 9 8 8 11 13 13 14 13 11 10 10 9 9 9 9 9 9 10 12 13 15 15 14 13 11 10 10 10 8 9 10 14 14 14 14 15
19 19 19 16 15 15 15 13 13 13 13 12 12 13 14 15 16 17 18 17 14 12 10 11 11 12 14 14 15 14 12 11 11 11 11 10 8 8 10 13 14 15 15
21 20 19 17 14 16 16 18 17 16 15 15 13 12 11 11 11 12 15 17 17 18 15 13 13 14 15 14 14 13 13 13 13 12 12 13 13 12 9 10 13 16 17
23 22 20 17 17 15 17 20 20 19 17 17 16 14 12 8 5 6 9 12 14 19 20 20 18 17 16 14 13 12 11 12 13 14 13 13 14 16 18 16 13 13 14
27 25 23 21 20 18 16 16 19 18 17 16 15 13 11 8 4 1 5 10 13 16 19 22 22 19 18 15 13 12 11 12 13 14 15 15 17 19 21 21 21 17 16
21 29 26 23 21 17 15 15 17 19 18 17 17 15 14 11 8 6 6 10 12 15 17 19 22 19 17 15 14 13 13 14 15 16 17 17 19 21 21 22 23 24 21
22 24 24 26 23 21 17 14 14 17 22 21 22 20 18 17 14 12 11 13 13 14 16 19 22 21 19 18 16 14 15 15 16 17 18 18 19 19 21 21 24 27 28
20 23 24 22 20 19 19 19 18 17 19 23 25 25 23 23 22 20 17 16 17 17 18 19 19 21 18 17 17 15 16 15 15 15 17 17 19 21 23 25 27 30 32
18 15 20 21 17 13 17 18 21 22 23 23 26 31 31 30 30 26 23 20 22 21 21 20 17 19 17 17 17 17 17 17 17 17 19 19 21 22 24 26 29 31 33
19 16 16 18 20 20 20 21 22 24 22 27 29 29 36 36 35 32 27 25 25 23 24 19 18 18 17 17 16 17 16 15 15 17 19 19 23 24 25 28 31 32 31
20 20 20 20 21 21 22 22 23 22 23 29 33 33 35 39 37 36 32 32 26 25 23 21 17 16 17 17 16 18 15 15 16 19 20 21 24 22 25 27 30 32 32
23 17 18 19 24 23 22 19 21 21 25 29 33 38 38 37 44 42 31 27 24 25 23 20 15 14 15 15 16 17 16 16 17 18 20 23 26 25 25 27 31 33 34
25 21 15 19 23 20 18 14 17 23 23 24 27 31 36 45 44 47 28 25 25 27 24 20 15 13 15 16 18 17 18 19 18 19 23 24 27 28 27 26 25 28 30
17 22 20 23 18 17 16 15 21 21 20 23 23 24 34 45 48 43 26 24 29 28 24 19 16 15 17 21 22 21 23 22 23 24 23 25 31 30 29 30 32 31 32
19 23 22 21 18 19 21 24 26 28 29 27 26 29 29 33 45 38 26 27 34 28 25 21 17 16 21 23 26 26 26 26 29 30 28 32 32 31 30 32 37 36 34
23 24 23 16 17 19 18 18 19 23 27 30 31 31 34 32 39 37 32 28 27 27 23 22 20 20 23 27 27 26 26 28 30 30 34 34 32 28 32 37 37 27 29
30 24 20 19 16 14 13 10 8 13 17 21 24 28 30 30 35 33 16 22 28 25 22 22 25 25 28 29 28 31 27 32 30 32 33 33 33 30 33 34 29 26 29
33 29 23 18 15 10 8 4 11 15 17 19 24 24 28 28 27 22 20 26 29 28 28 30 32 31 31 25 33 30 28 31 31 32 33 33 35 35 37 33 31 29 30
30 24 22 16 9 6 6 10 12 28 33 29 24 26 30 26 25 23 26 28 32 28 30 32 31 37 42 22 26 29 32 31 32 31 30 32 32 32 33 33 29 29 30
24 23 15 9 11 13 19 27 31 37 29 27 26 26 28 26 26 24 28 27 26 29 37 29 40 47 39 19 23 30 30 31 29 29 29 29 31 31 31 29 27 29 31
24 21 18 16 27 30 28 33 31 29 30 30 28 27 22 21 23 26 27 32 31 32 34 27 29 22 25 22 26 27 28 29 28 26 27 28 31 30 25 24 24 27 30
19 23 35 34 30 31 33 35 35 31 29 29 24 25 18 24 26 28 32 33 29 34 32 20 26 25 19 22 26 28 28 28 26 26 27 29 29 25 23 21 25 25 27
27 28 33 37 39 35 33 35 31 22 23 23 23 21 20 28 25 28 33 33 26 27 18 19 25 23 21 24 27 29 29 28 25 25 28 28 27 21 20 23 25 27 28
25 19 21 22 27 32 28 22 19 18 17 17 9 11 12 18 16 22 26 22 23 17 19 19 22 22 24 28 30 31 30 26 26 25 25 27 15 13 18 23 25 26 25
Wind_Direction
217 211 207 206 216 225 229 223 232 228 233 232 224 220 230 245 257 262 260 271 273 276 270 255 268 287 295 303 301 297 300 303 314 311 307 304 306 305 295 287 284 282 276
220 214 205 211 223 230 220 207 208 228 170 138 121 107 80 54 2 343 324 303 305 311 305 297 289 294 301 301 299 301 304 304 314 307 293 292 300 302 300 293 289 284 282
203 205 207 203 197 189 179 169 161 150 144 131 113 98 89 84 75 61 46 31 15 359 344 330 321 315 315 314 314 313 310 313 314 304 303 287 287 291 296 297 294 293 292
190 187 186 179 164 163 166 161 160 153 150 148 140 122 107 89 76 65 55 45 34 19 359 345 335 330 325 321 323 320 322 327 318 312 302 300 299 279 270 285 292 290 286
195 186 184 175 171 172 175 172 168 162 155 146 149 149 131 109 81 57 50 41 31 25 17 6 356 349 342 337 328 326 328 322 315 310 309 312 310 305 293 278 278 280 279
201 199 199 193 192 191 191 188 181 174 169 158 152 144 135 115 89 52 34 23 22 15 12 7 0 355 348 341 328 320 317 314 313 313 310 307 306 306 305 298 287 280 273
217 211 208 207 208 213 207 203 200 195 193 187 181 180 173 157 155 109 354 354 360 6 6 359 352 347 344 336 326 321 321 319 314 306 303 304 303 301 299 299 297 287 278
233 230 225 219 217 225 226 225 225 220 219 217 206 206 209 213 225 257 294 318 337 347 347 347 345 336 336 335 329 328 323 319 307 303 302 300 296 295 295 296 295 293 290
219 219 229 232 224 223 233 232 232 236 238 236 222 227 225 234 248 269 284 297 312 325 330 332 337 333 334 336 329 319 312 306 299 298 299 296 294 293 292 294 293 295 297
217 217 217 225 230 232 236 243 242 244 251 251 246 245 243 248 256 269 279 285 298 307 314 321 329 331 331 329 323 315 308 303 300 301 300 299 293 292 296 301 297 295 297
205 215 221 214 220 227 234 235 240 241 243 247 254 254 253 249 256 264 271 276 286 292 300 312 322 325 322 326 319 311 306 304 299 300 302 302 300 302 302 300 299 299 300
199 208 216 218 221 223 221 221 238 247 251 250 251 256 251 249 255 262 269 269 278 281 293 306 313 318 319 319 313 308 307 303 308 308 310 309 303 303 301 301 299 299 299
195 198 207 214 223 226 236 241 248 257 257 262 258 256 254 253 257 255 267 266 272 269 285 296 301 312 311 309 305 306 309 313 312 311 310 308 302 305 304 304 304 301 296
206 210 209 222 225 222 230 245 252 257 264 270 269 262 260 260 256 255 261 264 260 263 277 282 284 294 297 297 293 303 311 314 313 314 310 308 306 301 304 304 305 301 296
211 208 221 212 208 219 223 245 265 268 275 270 268 274 276 263 253 253 249 266 247 261 265 267 269 274 284 285 284 304 318 327 315 300 304 304 306 301 299 308 312 305 300
232 231 223 217 230 234 239 260 265 273 272 266 269 270 271 267 260 263 243 250 246 255 260 259 258 271 281 284 282 292 309 315 316 306 301 301 306 299 297 305 308 305 298
245 228 226 227 227 231 248 256 260 260 257 261 265 264 263 271 256 260 284 244 248 253 253 247 247 265 278 279 280 281 302 307 308 305 302 305 303 300 296 301 303 300 291
233 224 218 219 224 243 245 256 265 266 264 260 260 261 267 274 260 262 276 242 246 245 243 240 248 260 268 273 276 277 294 305 302 298 302 303 302 296 298 303 302 294 291
227 219 218 216 228 230 234 250 283 290 286 283 277 269 272 275 281 271 246 243 229 232 238 246 252 259 264 270 283 277 294 305 297 298 300 301 301 295 295 301 302 294 291
225 214 212 210 233 221 222 296 323 314 308 305 281 271 267 271 272 251 238 220 222 229 232 241 247 251 256 271 278 273 288 297 296 297 298 297 297 295 296 294 295 295 295
198 202 212 214 237 244 287 309 328 319 317 304 278 273 267 273 260 262 233 225 223 237 247 253 256 280 276 280 274 275 286 289 295 294 293 295 298 301 298 294 292 295 296
186 192 205 256 290 302 305 299 309 306 291 290 284 279 275 268 263 259 240 229 237 243 248 259 266 280 287 276 273 283 287 291 294 291 295 295 303 302 298 291 291 296 297
187 202 219 259 280 297 286 284 293 296 281 283 290 291 293 282 273 269 254 235 237 250 263 270 287 271 276 280 279 279 289 295 292 294 299 301 304 303 297 296 295 299 303
223 271 282 291 268 274 289 299 287 287 270 270 279 284 272 283 274 274 251 234 239 252 277 274 274 272 270 266 280 287 290 295 298 300 301 301 298 291 294 297 302 306 304
270 262 268 263 278 290 293 287 291 270 263 265 269 268 284 302 293 297 270 248 260 272 260 262 267 273 282 281 288 290 296 301 302 303 303 300 291 278 285 298 303 304 302
268 266 269 289 291 282 287 286 275 268 281 295 301 277 283 273 283 284 277 256 256 255 264 271 273 280 284 287 292 293 299 299 303 300 301 299 283 294 299 301 301 301 304